JTL329 KPNS-KLAL

Flight info

Callsign JTL329
Flight time 1h 17m
Altitude 39000
Route DCT CEW DCT MAI DCT
Aircraft CL60/M-SBDE1E2E3FGHIJ1J4J5J7M3RWXYZ/LB1V1D1

Departure

Time 2026-04-21 23:30
Airport Pensacola International Airport (KPNS)

Arrival

Time 2026-04-22 00:47
Airport Lakeland Linder International Airport (KLAL)
Time Latitude Longitude Altitude Speed Heading
2026-04-21 23:06 30.46966 -87.18240 105 ft 0 kts 77°
2026-04-21 23:21 30.46967 -87.18234 105 ft 0 kts 80°
2026-04-21 23:21 30.46976 -87.18224 105 ft 5 kts 357°
2026-04-21 23:21 30.46981 -87.18285 105 ft 13 kts 256°
2026-04-21 23:21 30.46974 -87.18322 104 ft 0 kts 262°
2026-04-21 23:22 30.46974 -87.18325 104 ft 0 kts 266°
2026-04-21 23:22 30.46973 -87.18330 104 ft 0 kts 260°
2026-04-21 23:24 30.46973 -87.18332 104 ft 2 kts 258°
2026-04-21 23:25 30.46965 -87.18374 104 ft 6 kts 257°
2026-04-21 23:25 30.46963 -87.18386 103 ft 5 kts 261°
2026-04-21 23:25 30.47000 -87.18417 103 ft 9 kts 348°
2026-04-21 23:25 30.47078 -87.18437 104 ft 13 kts 347°
2026-04-21 23:26 30.47185 -87.18465 104 ft 17 kts 347°
2026-04-21 23:26 30.47242 -87.18481 105 ft 7 kts 345°
2026-04-21 23:26 30.47306 -87.18499 105 ft 11 kts 347°
2026-04-21 23:26 30.47433 -87.18535 107 ft 15 kts 334°
2026-04-21 23:27 30.47444 -87.18642 106 ft 15 kts 258°
2026-04-21 23:27 30.47418 -87.18783 105 ft 19 kts 258°
2026-04-21 23:27 30.47389 -87.18946 104 ft 18 kts 268°
2026-04-21 23:27 30.47456 -87.19003 105 ft 14 kts 347°
2026-04-21 23:28 30.47560 -87.19031 107 ft 16 kts 347°
2026-04-21 23:28 30.47680 -87.19065 110 ft 18 kts 346°
2026-04-21 23:28 30.47821 -87.19102 112 ft 21 kts 348°
2026-04-21 23:28 30.47977 -87.19141 114 ft 24 kts 347°
2026-04-21 23:29 30.48150 -87.19186 116 ft 26 kts 348°
2026-04-21 23:29 30.48262 -87.19187 116 ft 13 kts 67°
2026-04-21 23:29 30.48275 -87.19070 117 ft 13 kts 125°
2026-04-21 23:29 30.47951 -87.18978 114 ft 104 kts 167°
2026-04-21 23:30 30.46972 -87.18714 454 ft 169 kts 168°
2026-04-21 23:30 30.45799 -87.18082 1111 ft 209 kts 130°
2026-04-21 23:30 30.45390 -87.16471 2374 ft 223 kts 91°
2026-04-21 23:30 30.45736 -87.14829 4027 ft 222 kts 62°
2026-04-21 23:31 30.46580 -87.13448 5651 ft 216 kts 53°
2026-04-21 23:31 30.47504 -87.12179 7064 ft 216 kts 49°
2026-04-21 23:31 30.48514 -87.10905 8277 ft 226 kts 49°
2026-04-21 23:31 30.49585 -87.09559 9417 ft 239 kts 49°
2026-04-21 23:32 30.50803 -87.08025 10102 ft 274 kts 48°
2026-04-21 23:32 30.52178 -87.06295 10591 ft 314 kts 48°
2026-04-21 23:32 30.53723 -87.04353 11213 ft 344 kts 48°
2026-04-21 23:32 30.55388 -87.02259 12156 ft 360 kts 47°
2026-04-21 23:33 30.57108 -87.00098 13188 ft 370 kts 47°
2026-04-21 23:33 30.58871 -86.97882 14206 ft 380 kts 47°
2026-04-21 23:33 30.60675 -86.95612 15267 ft 386 kts 47°
2026-04-21 23:33 30.62508 -86.93306 16288 ft 392 kts 46°
2026-04-21 23:34 30.64350 -86.90987 17233 ft 398 kts 46°
2026-04-21 23:34 30.66237 -86.88610 18168 ft 404 kts 46°
2026-04-21 23:34 30.68161 -86.86186 19049 ft 411 kts 46°
2026-04-21 23:34 30.70100 -86.83740 19885 ft 417 kts 45°
2026-04-21 23:35 30.72071 -86.81252 20665 ft 423 kts 45°
2026-04-21 23:35 30.74075 -86.78722 21372 ft 431 kts 45°
2026-04-21 23:35 30.76116 -86.76143 22093 ft 437 kts 45°
2026-04-21 23:35 30.78185 -86.73527 22771 ft 444 kts 45°
2026-04-21 23:36 30.80193 -86.70770 23508 ft 450 kts 53°
2026-04-21 23:36 30.81679 -86.67528 24278 ft 457 kts 67°
2026-04-21 23:36 30.82436 -86.63907 24941 ft 464 kts 83°
2026-04-21 23:36 30.82474 -86.60151 25584 ft 469 kts 91°
2026-04-21 23:37 30.82387 -86.56362 26179 ft 474 kts 91°
2026-04-21 23:37 30.82307 -86.52571 26779 ft 478 kts 91°
2026-04-21 23:37 30.82225 -86.48679 27396 ft 481 kts 91°
2026-04-21 23:37 30.82141 -86.44814 27937 ft 485 kts 90°
2026-04-21 23:38 30.82055 -86.40854 28461 ft 489 kts 90°
2026-04-21 23:38 30.81968 -86.36939 28954 ft 492 kts 90°
2026-04-21 23:38 30.81880 -86.33015 29405 ft 495 kts 91°
2026-04-21 23:38 30.81808 -86.29812 29829 ft 496 kts 91°
2026-04-21 23:39 30.81714 -86.25759 30400 ft 496 kts 91°
2026-04-21 23:39 30.81621 -86.21764 30971 ft 496 kts 91°
2026-04-21 23:39 30.81527 -86.17785 31555 ft 494 kts 91°
2026-04-21 23:39 30.81431 -86.13774 32117 ft 494 kts 91°
2026-04-21 23:40 30.81337 -86.09852 32710 ft 491 kts 91°
2026-04-21 23:40 30.81239 -86.05849 33255 ft 490 kts 91°
2026-04-21 23:40 30.81141 -86.01897 33811 ft 488 kts 91°
2026-04-21 23:40 30.81043 -85.97970 34218 ft 488 kts 91°
2026-04-21 23:41 30.80943 -85.94037 34544 ft 490 kts 91°
2026-04-21 23:41 30.80841 -85.90057 34836 ft 492 kts 91°
2026-04-21 23:41 30.80739 -85.86089 35150 ft 493 kts 90°
2026-04-21 23:41 30.80634 -85.82076 35476 ft 494 kts 90°
2026-04-21 23:42 30.80529 -85.78114 35785 ft 495 kts 90°
2026-04-21 23:42 30.80422 -85.74129 36128 ft 496 kts 90°
2026-04-21 23:42 30.80312 -85.70095 36486 ft 497 kts 90°
2026-04-21 23:42 30.80203 -85.66090 36835 ft 498 kts 90°
2026-04-21 23:43 30.80090 -85.62039 37200 ft 499 kts 90°
2026-04-21 23:43 30.79977 -85.58016 37519 ft 500 kts 89°
2026-04-21 23:43 30.79863 -85.53980 37896 ft 500 kts 90°
2026-04-21 23:43 30.79747 -85.49954 38250 ft 500 kts 89°
2026-04-21 23:44 30.79631 -85.45925 38605 ft 499 kts 89°
2026-04-21 23:44 30.79511 -85.41861 38929 ft 499 kts 89°
2026-04-21 23:44 30.79393 -85.37858 39173 ft 500 kts 89°
2026-04-21 23:44 30.79272 -85.33813 39237 ft 505 kts 90°
2026-04-21 23:45 30.78447 -85.21645 39236 ft 520 kts 100°
2026-04-21 23:46 30.76283 -85.13623 39231 ft 528 kts 114°
2026-04-21 23:46 30.72613 -85.06187 39216 ft 533 kts 128°
2026-04-21 23:47 30.67660 -84.99776 39208 ft 534 kts 138°
2026-04-21 23:47 30.62369 -84.93687 39212 ft 534 kts 138°
2026-04-21 23:48 30.57121 -84.87650 39221 ft 533 kts 137°
2026-04-21 23:48 30.51846 -84.81593 39229 ft 533 kts 138°
2026-04-21 23:49 30.46565 -84.75538 39221 ft 533 kts 137°
2026-04-21 23:49 30.41289 -84.69497 39231 ft 533 kts 138°
2026-04-21 23:50 30.35997 -84.63450 39227 ft 534 kts 138°
2026-04-21 23:50 30.30711 -84.57418 39222 ft 535 kts 137°
2026-04-21 23:51 30.25429 -84.51400 39230 ft 535 kts 137°
2026-04-21 23:51 30.20114 -84.45355 39233 ft 535 kts 137°
2026-04-21 23:52 30.14786 -84.39304 39218 ft 534 kts 137°
2026-04-21 23:52 30.09573 -84.33395 39229 ft 534 kts 138°
2026-04-21 23:53 30.06816 -84.30273 39219 ft 534 kts 138°
2026-04-21 23:53 30.02381 -84.25307 39197 ft 534 kts 138°
2026-04-21 23:54 29.97077 -84.19301 39221 ft 535 kts 138°
2026-04-21 23:54 29.91747 -84.13280 39216 ft 536 kts 138°
2026-04-21 23:55 29.87021 -84.07952 39211 ft 535 kts 138°
2026-04-21 23:55 29.81682 -84.01943 39220 ft 534 kts 138°
2026-04-21 23:56 29.76370 -83.95976 39223 ft 534 kts 138°
2026-04-21 23:56 29.71043 -83.90001 39216 ft 534 kts 138°
2026-04-21 23:57 29.65734 -83.84058 39212 ft 535 kts 138°
2026-04-21 23:57 29.60363 -83.78054 39212 ft 535 kts 138°
2026-04-21 23:58 29.55018 -83.72089 39212 ft 534 kts 138°
2026-04-21 23:58 29.49678 -83.66140 39201 ft 533 kts 138°
2026-04-21 23:59 29.44367 -83.60232 39207 ft 533 kts 139°
2026-04-21 23:59 29.39044 -83.54321 39207 ft 533 kts 139°
2026-04-22 00:00 29.33729 -83.48427 39209 ft 533 kts 138°
2026-04-22 00:00 29.28377 -83.42503 39209 ft 533 kts 138°
2026-04-22 00:01 29.23076 -83.36643 39206 ft 533 kts 138°
2026-04-22 00:01 29.19054 -83.32203 39210 ft 531 kts 139°
2026-04-22 00:02 29.15150 -83.27895 39208 ft 530 kts 139°
2026-04-22 00:02 29.09828 -83.22036 39207 ft 530 kts 139°
2026-04-22 00:02 29.07192 -83.19134 38992 ft 516 kts 139°
2026-04-22 00:03 29.04642 -83.16328 38178 ft 508 kts 139°
2026-04-22 00:03 29.02114 -83.13552 37035 ft 508 kts 139°
2026-04-22 00:03 28.99543 -83.10732 35703 ft 510 kts 138°
2026-04-22 00:03 28.96988 -83.07931 34218 ft 514 kts 137°
2026-04-22 00:04 28.94432 -83.05132 32686 ft 515 kts 137°
2026-04-22 00:04 28.91850 -83.02305 31488 ft 507 kts 137°
2026-04-22 00:04 28.89503 -82.99735 30552 ft 497 kts 137°
2026-04-22 00:04 28.87783 -82.97851 29893 ft 489 kts 137°
2026-04-22 00:05 28.85723 -82.95595 29087 ft 481 kts 137°
2026-04-22 00:05 28.83335 -82.92986 28123 ft 472 kts 138°
2026-04-22 00:05 28.80978 -82.90412 27128 ft 464 kts 138°
2026-04-22 00:05 28.78705 -82.87933 26113 ft 457 kts 138°
2026-04-22 00:06 28.76433 -82.85456 25063 ft 451 kts 138°
2026-04-22 00:06 28.74188 -82.83009 24057 ft 444 kts 139°
2026-04-22 00:06 28.71963 -82.80585 23071 ft 436 kts 139°
2026-04-22 00:06 28.69788 -82.78219 21723 ft 438 kts 138°
2026-04-22 00:07 28.67604 -82.75846 20203 ft 441 kts 137°
2026-04-22 00:07 28.65424 -82.73478 18876 ft 436 kts 137°
2026-04-22 00:07 28.63242 -82.71108 17654 ft 427 kts 136°
2026-04-22 00:07 28.61151 -82.68838 16457 ft 417 kts 136°
2026-04-22 00:08 28.59078 -82.66590 15237 ft 408 kts 136°
2026-04-22 00:08 28.57073 -82.64417 14083 ft 398 kts 135°
2026-04-22 00:08 28.55102 -82.62282 12908 ft 387 kts 135°
2026-04-22 00:08 28.53167 -82.60187 11663 ft 379 kts 135°
2026-04-22 00:09 28.51299 -82.58165 10667 ft 363 kts 135°
2026-04-22 00:09 28.49566 -82.56293 10653 ft 324 kts 135°
2026-04-22 00:09 28.48012 -82.54616 10655 ft 295 kts 135°
2026-04-22 00:09 28.46548 -82.53033 10556 ft 285 kts 134°
2026-04-22 00:10 28.45117 -82.51486 10364 ft 283 kts 135°
2026-04-22 00:10 28.43700 -82.49954 10167 ft 281 kts 135°
2026-04-22 00:10 28.42276 -82.48415 9966 ft 280 kts 135°
2026-04-22 00:10 28.40872 -82.46897 9785 ft 279 kts 135°
2026-04-22 00:11 28.39452 -82.45365 9632 ft 278 kts 135°
2026-04-22 00:11 28.38057 -82.43861 9526 ft 278 kts 135°
2026-04-22 00:11 28.36440 -82.42635 9412 ft 279 kts 157°
2026-04-22 00:11 28.34530 -82.42295 9273 ft 281 kts 182°
2026-04-22 00:12 28.32580 -82.42570 9152 ft 282 kts 187°
2026-04-22 00:12 28.30630 -82.42870 9031 ft 282 kts 186°
2026-04-22 00:12 28.28697 -82.43162 8894 ft 281 kts 186°
2026-04-22 00:12 28.26746 -82.43459 8775 ft 281 kts 186°
2026-04-22 00:13 28.24789 -82.43755 8648 ft 281 kts 186°
2026-04-22 00:13 28.22855 -82.44048 8532 ft 280 kts 186°
2026-04-22 00:13 28.20842 -82.44350 8772 ft 308 kts 186°
2026-04-22 00:13 28.18695 -82.44674 9937 ft 314 kts 187°
2026-04-22 00:14 28.16528 -82.45001 10625 ft 316 kts 187°
2026-04-22 00:14 28.14343 -82.45332 10936 ft 311 kts 187°
2026-04-22 00:14 28.12225 -82.45651 11006 ft 307 kts 187°
2026-04-22 00:14 28.10118 -82.45969 11000 ft 304 kts 187°
2026-04-22 00:15 28.08006 -82.46288 10992 ft 302 kts 187°
2026-04-22 00:15 28.05928 -82.46602 10990 ft 302 kts 187°
2026-04-22 00:15 28.03817 -82.46920 10990 ft 302 kts 186°
2026-04-22 00:15 28.01743 -82.47233 10989 ft 302 kts 187°
2026-04-22 00:16 27.99626 -82.47552 10987 ft 302 kts 186°
2026-04-22 00:16 27.97533 -82.47867 10988 ft 302 kts 187°
2026-04-22 00:16 27.95446 -82.48180 10987 ft 301 kts 187°
2026-04-22 00:16 27.93366 -82.48493 10988 ft 301 kts 187°
2026-04-22 00:17 27.91288 -82.48806 10987 ft 301 kts 187°
2026-04-22 00:17 27.89505 -82.49074 10984 ft 301 kts 187°
2026-04-22 00:17 27.87735 -82.49340 10983 ft 301 kts 187°
2026-04-22 00:17 27.85638 -82.49655 10983 ft 301 kts 187°
2026-04-22 00:18 27.83541 -82.49970 10983 ft 301 kts 187°
2026-04-22 00:18 27.81456 -82.50282 10984 ft 301 kts 187°
2026-04-22 00:18 27.79352 -82.50598 10985 ft 301 kts 187°
2026-04-22 00:18 27.77262 -82.50912 10982 ft 301 kts 187°
2026-04-22 00:19 27.75185 -82.51223 10980 ft 301 kts 187°
2026-04-22 00:19 27.73104 -82.51534 10978 ft 301 kts 187°
2026-04-22 00:19 27.71002 -82.51849 10989 ft 301 kts 187°
2026-04-22 00:19 27.68932 -82.52159 10984 ft 302 kts 187°
2026-04-22 00:20 27.66858 -82.52470 10978 ft 301 kts 187°
2026-04-22 00:20 27.64771 -82.52782 10978 ft 300 kts 187°
2026-04-22 00:20 27.62719 -82.53089 10990 ft 286 kts 187°
2026-04-22 00:20 27.60771 -82.53381 10984 ft 281 kts 187°
2026-04-22 00:21 27.58838 -82.53669 10981 ft 279 kts 187°
2026-04-22 00:21 27.56893 -82.53960 10981 ft 278 kts 187°
2026-04-22 00:21 27.54986 -82.54244 10978 ft 278 kts 187°
2026-04-22 00:21 27.53052 -82.54533 10979 ft 277 kts 187°
2026-04-22 00:22 27.51133 -82.54819 10976 ft 277 kts 187°
2026-04-22 00:22 27.49228 -82.55102 10974 ft 277 kts 187°
2026-04-22 00:22 27.47308 -82.55389 10974 ft 277 kts 187°
2026-04-22 00:22 27.45387 -82.55675 10982 ft 278 kts 187°
2026-04-22 00:23 27.43444 -82.55965 10973 ft 277 kts 187°
2026-04-22 00:23 27.41517 -82.56249 10974 ft 277 kts 187°
2026-04-22 00:23 27.39597 -82.56529 10976 ft 277 kts 187°
2026-04-22 00:23 27.37672 -82.56809 10975 ft 277 kts 187°
2026-04-22 00:24 27.35765 -82.57079 10972 ft 277 kts 184°
2026-04-22 00:24 27.33866 -82.56858 10972 ft 275 kts 162°
2026-04-22 00:24 27.32088 -82.55992 10977 ft 275 kts 148°
2026-04-22 00:24 27.30384 -82.55062 10968 ft 275 kts 166°
2026-04-22 00:25 27.28500 -82.55153 10954 ft 275 kts 200°
2026-04-22 00:25 27.26970 -82.56433 10987 ft 276 kts 235°
2026-04-22 00:25 27.26339 -82.58432 10969 ft 274 kts 269°
2026-04-22 00:25 27.26815 -82.60449 10980 ft 270 kts 304°
2026-04-22 00:26 27.28180 -82.61872 10995 ft 269 kts 330°
2026-04-22 00:26 27.29976 -82.62474 10964 ft 266 kts
2026-04-22 00:26 27.31768 -82.62012 10968 ft 267 kts 21°
2026-04-22 00:26 27.33500 -82.61190 10968 ft 267 kts 24°
2026-04-22 00:27 27.35209 -82.60350 10978 ft 268 kts 24°
2026-04-22 00:27 27.36910 -82.59513 10978 ft 267 kts 24°
2026-04-22 00:27 27.38624 -82.58669 10977 ft 267 kts 24°
2026-04-22 00:27 27.40238 -82.57633 10980 ft 267 kts 43°
2026-04-22 00:28 27.41219 -82.55911 10983 ft 268 kts 73°
2026-04-22 00:28 27.41257 -82.53824 10983 ft 270 kts 104°
2026-04-22 00:28 27.40337 -82.51999 10981 ft 272 kts 130°
2026-04-22 00:28 27.39003 -82.50438 10974 ft 273 kts 133°
2026-04-22 00:29 27.37650 -82.48921 10975 ft 274 kts 133°
2026-04-22 00:29 27.36307 -82.47417 10978 ft 274 kts 133°
2026-04-22 00:29 27.34953 -82.45899 10988 ft 274 kts 134°
2026-04-22 00:29 27.33594 -82.44375 10994 ft 274 kts 133°
2026-04-22 00:30 27.32255 -82.42877 10981 ft 274 kts 134°
2026-04-22 00:30 27.30887 -82.41345 10992 ft 273 kts 134°
2026-04-22 00:30 27.29705 -82.39704 10990 ft 271 kts 114°
2026-04-22 00:30 27.29304 -82.37645 10799 ft 274 kts 86°
2026-04-22 00:31 27.29870 -82.35613 10315 ft 276 kts 56°
2026-04-22 00:31 27.31089 -82.34309 9866 ft 277 kts 29°
2026-04-22 00:31 27.32081 -82.33820 9587 ft 279 kts 20°
2026-04-22 00:31 27.33780 -82.33221 9106 ft 280 kts 17°
2026-04-22 00:32 27.35650 -82.32609 8605 ft 280 kts 17°
2026-04-22 00:32 27.37567 -82.32104 8110 ft 281 kts
2026-04-22 00:32 27.39486 -82.31858 7697 ft 277 kts
2026-04-22 00:32 27.41387 -82.31619 7327 ft 272 kts
2026-04-22 00:33 27.43253 -82.31379 6946 ft 265 kts
2026-04-22 00:33 27.45056 -82.31145 6592 ft 260 kts
2026-04-22 00:33 27.46860 -82.30908 6220 ft 256 kts
2026-04-22 00:33 27.48599 -82.30679 5950 ft 247 kts
2026-04-22 00:34 27.50278 -82.30456 5723 ft 240 kts
2026-04-22 00:34 27.51949 -82.30231 5481 ft 240 kts 10°
2026-04-22 00:34 27.53595 -82.30008 5232 ft 239 kts 10°
2026-04-22 00:34 27.55266 -82.29781 5001 ft 237 kts 10°
2026-04-22 00:35 27.56899 -82.29557 4837 ft 238 kts 11°
2026-04-22 00:35 27.58563 -82.29328 4650 ft 238 kts 11°
2026-04-22 00:35 27.60198 -82.29103 4476 ft 238 kts 11°
2026-04-22 00:35 27.61867 -82.28872 4302 ft 238 kts 11°
2026-04-22 00:36 27.63498 -82.28645 4125 ft 237 kts 12°
2026-04-22 00:36 27.65133 -82.28418 3951 ft 237 kts 12°
2026-04-22 00:36 27.66786 -82.28188 3774 ft 237 kts 12°
2026-04-22 00:36 27.68446 -82.27954 3595 ft 244 kts 12°
2026-04-22 00:37 27.70144 -82.27716 3412 ft 245 kts 12°
2026-04-22 00:37 27.71863 -82.27475 3233 ft 245 kts 12°
2026-04-22 00:37 27.73558 -82.27238 3056 ft 244 kts 12°
2026-04-22 00:37 27.75234 -82.27003 2882 ft 244 kts 12°
2026-04-22 00:38 27.76939 -82.26763 2709 ft 244 kts 12°
2026-04-22 00:38 27.78612 -82.26528 2685 ft 244 kts 13°
2026-04-22 00:38 27.80316 -82.26287 2685 ft 246 kts 12°
2026-04-22 00:38 27.82030 -82.26045 2687 ft 246 kts 12°
2026-04-22 00:39 27.83734 -82.25805 2686 ft 244 kts 12°
2026-04-22 00:39 27.85364 -82.25581 2703 ft 225 kts 13°
2026-04-22 00:39 27.86877 -82.25372 2713 ft 209 kts 13°
2026-04-22 00:39 27.88311 -82.25171 2700 ft 205 kts 14°
2026-04-22 00:40 27.89736 -82.24968 2690 ft 205 kts 13°
2026-04-22 00:40 27.91159 -82.24765 2687 ft 205 kts 14°
2026-04-22 00:40 27.92571 -82.24564 2685 ft 205 kts 13°
2026-04-22 00:40 27.93984 -82.24363 2684 ft 204 kts 13°
2026-04-22 00:41 27.95400 -82.24162 2689 ft 199 kts 13°
2026-04-22 00:41 27.96740 -82.23977 2703 ft 184 kts 13°
2026-04-22 00:41 27.97914 -82.23692 2715 ft 163 kts 27°
2026-04-22 00:41 27.98762 -82.22997 2689 ft 147 kts 64°
2026-04-22 00:42 27.98985 -82.21898 2686 ft 144 kts 90°
2026-04-22 00:42 27.98932 -82.20750 2694 ft 145 kts 93°
2026-04-22 00:42 27.98884 -82.19616 2692 ft 145 kts 91°
2026-04-22 00:42 27.98874 -82.18459 2631 ft 148 kts 90°
2026-04-22 00:43 27.98879 -82.17306 2431 ft 142 kts 89°
2026-04-22 00:43 27.98885 -82.16206 2273 ft 137 kts 90°
2026-04-22 00:43 27.98889 -82.15162 2132 ft 136 kts 90°
2026-04-22 00:43 27.98892 -82.14063 1934 ft 139 kts 90°
2026-04-22 00:44 27.98896 -82.12965 1760 ft 141 kts 90°
2026-04-22 00:44 27.98900 -82.11853 1578 ft 140 kts 90°
2026-04-22 00:44 27.98903 -82.10753 1392 ft 141 kts 90°
2026-04-22 00:44 27.98907 -82.09637 1216 ft 142 kts 90°
2026-04-22 00:45 27.98910 -82.08515 1028 ft 138 kts 90°
2026-04-22 00:45 27.98914 -82.07542 904 ft 116 kts 90°
2026-04-22 00:45 27.98916 -82.06622 712 ft 114 kts 90°
2026-04-22 00:45 27.98918 -82.05736 566 ft 112 kts 90°
2026-04-22 00:46 27.98922 -82.04858 416 ft 115 kts 90°
2026-04-22 00:46 27.98924 -82.03895 272 ft 122 kts 90°
2026-04-22 00:46 27.98926 -82.02966 143 ft 113 kts 90°
2026-04-22 00:46 27.98926 -82.02174 134 ft 87 kts 90°
2026-04-22 00:47 27.98930 -82.01588 137 ft 60 kts 91°
2026-04-22 00:47 27.98930 -82.01191 139 ft 45 kts 90°
2026-04-22 00:47 27.98931 -82.00864 140 ft 32 kts 89°
2026-04-22 00:47 27.98878 -82.00761 140 ft 14 kts 178°
2026-04-22 00:48 27.98780 -82.00758 140 ft 13 kts 178°
2026-04-22 00:48 27.98733 -82.00799 140 ft 10 kts 276°
2026-04-22 00:48 27.98734 -82.00906 139 ft 16 kts 270°
2026-04-22 00:48 27.98734 -82.01063 139 ft 23 kts 270°
2026-04-22 00:49 27.98734 -82.01266 138 ft 28 kts 269°
2026-04-22 00:49 27.98734 -82.01502 137 ft 32 kts 270°
2026-04-22 00:49 27.98733 -82.01690 136 ft 16 kts 269°
2026-04-22 00:49 27.98791 -82.01717 136 ft 13 kts 44°
2026-04-22 00:50 27.98827 -82.01675 136 ft 0 kts 49°
2026-04-22 00:50 27.98850 -82.01648 136 ft 22 kts 46°
2026-04-22 00:50 27.98999 -82.01482 138 ft 33 kts 45°
2026-04-22 00:51 27.99173 -82.01286 139 ft 32 kts 45°
2026-04-22 00:51 27.99281 -82.01257 140 ft 18 kts 323°
2026-04-22 00:51 27.99349 -82.01378 139 ft 13 kts 258°
2026-04-22 00:51 27.99324 -82.01479 139 ft 15 kts 211°
2026-04-22 00:52 27.99238 -82.01513 138 ft 10 kts 266°
2026-04-22 00:52 27.99259 -82.01549 138 ft 0 kts 311°